Fort Riley, KS

4:04 AM CST on December 09, 2016 (GMT -0600)
Marshall Army Air Field

Weather History for KFRI - August, 2014

Change the Weather History Date:

Tuesday, August 26, 2014

  Actual Average (KMHK) Record (KMHK)
Temperature  
Mean Temperature 80 °F -  
Max Temperature 93 °F 88 °F 100 °F (2003)
Min Temperature 67 °F 62 °F 54 °F (2015)
Cooling Degree Days 14    
Growing Degree Days 30 (Base 50)    
Moisture  
Dew Point 68 °F    
Average Humidity 76    
Maximum Humidity 100    
Minimum Humidity 42    
Precipitation  
Precipitation 0.40 in - - ()
Sea Level Pressure  
Sea Level Pressure 30.06 in    
Wind  
Wind Speed 9 mph (NE)    
Max Wind Speed 21 mph    
Max Gust Speed 32 mph    
Visibility 8 miles    
Events Rain , Thunderstorm    
Averages and records for this station are not official NWS values.
T = Trace of Precipitation, MM = Missing Value Source: NWS Daily Summary

Daily Weather History Graph

Daily Weather History Graph

Search for Another Location

Airport or City:

Trip Planner

Search our weather history database for the weather conditions in past years. The results will help you decide how hot, cold, wet, or windy it might be!

Date:

Astronomy

Aug. 26, 2014 Rise Set
Actual Time 6:50 AM CDT 8:06 PM CDT
Civil Twilight 6:22 AM CDT 8:34 PM CDT
Nautical Twilight 5:49 AM CDT 9:07 PM CDT
Astronomical Twilight 5:14 AM CDT 9:41 PM CDT
Moon 7:51 AM CDT (8/26) 8:29 PM CDT (8/26)
Length of Visible Light 14h 11m
Length of Day
13h 16m
New Moon, 1% of the Moon is Illuminated
Aug 26
New Moon
Sep 2
First Quarter
Sep 8
Full
Sep 15
Last Quarter
Sep 24
New

Hourly Weather History & Observations

Time (CDT) Temp. Heat Index Dew Point Humidity Pressure Visibility Wind Dir Wind Speed Gust Speed Precip Events Conditions
12:58 AM 78.1 °F - 69.4 °F 75% 29.97 in 10.0 mi West 11.5 mph - N/A   Clear
1:58 AM 74.7 °F - 65.7 °F 73% 30.01 in 10.0 mi West 5.8 mph - N/A   Clear
2:58 AM 73.6 °F - 64.0 °F 72% 30.02 in 10.0 mi NW 4.6 mph - N/A   Clear
3:58 AM 72.5 °F - 63.9 °F 74% 30.04 in 10.0 mi NNE 6.9 mph - N/A   Scattered Clouds
4:58 AM 71.2 °F - 62.8 °F 75% 29.98 in 10.0 mi ENE 12.7 mph - N/A   Clear
5:58 AM 70.2 °F - 62.1 °F 75% 30.04 in 10.0 mi NE 10.4 mph - N/A   Partly Cloudy
6:58 AM 68.9 °F - 62.8 °F 81% 30.06 in 10.0 mi ENE 10.4 mph - N/A Thunderstorm Mostly Cloudy
7:38 AM 69.8 °F - 64.4 °F 83% 30.14 in 6.0 mi NNE 9.2 mph - N/A Rain , Thunderstorm Light Rain
7:43 AM 69.8 °F - 64.4 °F 83% 30.13 in 4.0 mi NE 8.1 mph - N/A Rain , Thunderstorm Heavy Thunderstorms and Rain
7:58 AM 68.5 °F - 66.6 °F 93% 30.10 in 4.0 mi ENE 11.5 mph - 0.06 in Rain , Thunderstorm Thunderstorms and Rain
7:59 AM 68.0 °F - 66.2 °F 94% 30.13 in 4.0 mi NE 11.5 mph - N/A Rain , Thunderstorm Rain
8:00 AM 68.0 °F - 66.2 °F 94% 30.13 in 4.0 mi NE 11.5 mph - N/A Rain , Thunderstorm Thunderstorms and Rain
8:30 AM 68.0 °F - 68.0 °F 100% 30.17 in 1.2 mi Variable 1.2 mph - N/A Rain , Thunderstorm Light Thunderstorms and Rain
8:35 AM 68.0 °F - 68.0 °F 100% 30.15 in 0.8 mi ENE 5.8 mph - N/A Rain , Thunderstorm Heavy Thunderstorms and Rain
8:45 AM 68.0 °F - 68.0 °F 100% 30.14 in 2.0 mi ENE 9.2 mph - N/A Rain , Thunderstorm Thunderstorms and Rain
8:50 AM 68.0 °F - 68.0 °F 100% 30.14 in 3.0 mi East 10.4 mph - N/A Rain , Thunderstorm Light Thunderstorms and Rain
8:58 AM 67.5 °F - 67.5 °F 100% 30.10 in 10.0 mi East 15.0 mph - 0.29 in Rain , Thunderstorm Light Thunderstorms and Rain
9:16 AM 68.0 °F - 68.0 °F 100% 30.11 in 10.0 mi East 13.8 mph - N/A Thunderstorm Mostly Cloudy
9:58 AM 69.3 °F - 69.3 °F 100% 30.09 in 10.0 mi ESE 8.1 mph - 0.00 in   Clear
10:58 AM 78.8 °F - 67.1 °F 67% 30.09 in 10.0 mi ESE 10.4 mph - N/A   Clear
11:58 AM 85.3 °F 87.9 °F 66.9 °F 54% 30.07 in 10.0 mi East 9.2 mph - N/A   Clear
12:58 PM 89.2 °F 91.6 °F 66.0 °F 46% 30.04 in 10.0 mi ESE 8.1 mph - N/A   Clear
1:58 PM 90.5 °F 93.3 °F 66.4 °F 45% 30.04 in 10.0 mi South 9.2 mph - N/A   Clear
2:58 PM 91.6 °F 95.7 °F 68.0 °F 46% 30.03 in 10.0 mi Variable 2.3 mph - N/A   Partly Cloudy
3:58 PM 92.8 °F 96.1 °F 66.4 °F 42% 30.01 in 10.0 mi East 4.6 mph - N/A   Clear
4:43 PM 89.6 °F 93.4 °F 68.0 °F 49% 30.04 in 10.0 mi West 5.8 mph - N/A Thunderstorm Light Drizzle
4:50 PM 87.8 °F 91.4 °F 68.0 °F 52% 30.05 in 10.0 mi WNW 13.8 mph 23.0 mph N/A Thunderstorm Light Drizzle
4:52 PM 86.0 °F 89.4 °F 68.0 °F 55% 30.04 in 7.0 mi WNW 20.7 mph 25.3 mph N/A Thunderstorm Mostly Cloudy
4:54 PM 84.2 °F 87.3 °F 68.0 °F 58% 30.05 in 7.0 mi WNW 17.3 mph 25.3 mph N/A Rain , Thunderstorm Light Rain
4:57 PM 82.4 °F 85.4 °F 68.0 °F 62% 30.05 in 6.0 mi WNW 12.7 mph 25.3 mph N/A Rain , Thunderstorm Light Thunderstorms and Rain
4:58 PM 82.4 °F 85.4 °F 68.0 °F 62% 30.02 in 6.0 mi WNW 11.5 mph 25.3 mph 0.00 in Rain , Thunderstorm Light Thunderstorms and Rain
5:05 PM 78.8 °F - 71.6 °F 78% 30.05 in 6.0 mi NW 15.0 mph 18.4 mph N/A Rain , Thunderstorm Light Thunderstorms and Rain
5:11 PM 78.8 °F - 68.0 °F 69% 30.04 in 3.0 mi North 15.0 mph 32.2 mph N/A Rain , Thunderstorm Light Thunderstorms and Rain
5:30 PM 77.0 °F - 71.6 °F 83% 30.03 in 9.0 mi Variable 1.2 mph - N/A Rain , Thunderstorm Light Rain
5:43 PM 80.6 °F 83.9 °F 69.8 °F 70% 30.03 in 10.0 mi SSW 4.6 mph - N/A Thunderstorm Scattered Clouds
5:58 PM 84.2 °F 90.3 °F 72.7 °F 68% 30.02 in 10.0 mi SSE 19.6 mph 31.1 mph 0.05 in Thunderstorm Clear
6:58 PM 82.2 °F 84.7 °F 67.1 °F 60% 29.99 in 10.0 mi NNE 6.9 mph - N/A   Clear
7:58 PM 78.8 °F - 71.6 °F 78% 30.01 in 10.0 mi NE 4.6 mph - N/A   Clear
8:58 PM 76.8 °F - 72.3 °F 86% 30.01 in 10.0 mi NE 4.6 mph - N/A   Overcast
9:46 PM 75.2 °F - 69.8 °F 83% 30.06 in 10.0 mi NE 3.5 mph - N/A   Light Drizzle
9:56 PM 75.2 °F - 73.4 °F 94% 30.07 in 10.0 mi NE 3.5 mph - N/A   Mostly Cloudy
9:58 PM 75.2 °F - 73.4 °F 94% 30.04 in 10.0 mi NE 2.3 mph - 0.00 in   Mostly Cloudy
10:58 PM 75.7 °F - 71.4 °F 86% 30.04 in 10.0 mi East 2.3 mph - N/A   Overcast
11:58 PM 74.3 °F - 74.3 °F 100% 30.04 in 10.0 mi NE 5.8 mph - N/A   Overcast